{"data":{"norad_id":55766,"epoch":"2026-09-20T23:12:54.378720Z","epoch_age_seconds":62724,"freshness":"FRESH","line1":"1 55766U 23028AB  26263.96729605  .00000265  00000+0  30041-4 0  9991","line2":"2 55766  69.9981  92.0998 0002617 273.9881  86.0979 14.98324951195789","mean_motion":14.98324951,"eccentricity":0.0002617,"inclination_deg":69.9981,"raan_deg":92.0998,"arg_perigee_deg":273.9881,"mean_anomaly_deg":86.0979,"bstar":3.0041e-5,"rev_number":19578,"period_min":96.107322983504,"perigee_km":570.25263503861,"apogee_km":573.89037416992,"semimajor_km":6950.2085046043,"source":"CELESTRAK","updated_at":"2026-09-21T09:00:33.316311Z"}}